Hourly Data Report for January 03, 2018

All times are specified in Local Standard Time (LST). Add 1 hour to adjust for Daylight Saving Time where and when it is observed.

VANCOUVER INTL A
BRITISH COLUMBIA

49°11'41.000" N
123°11'02.000" W
4.30 m
1108395
71892
YVR

Download Data

Hourly Data (January 2018)
Hourly Data Report for January 3, 2018
Temp Definition
°C
Dew Point Temp Definition
°C
Rel Hum Definition
%
Wind Dir Definition
10's deg

Wind Spd Definition
km/h
Visibility Definition
km
Stn Press Definition
kPa
Hmdx Definition


Wind Chill Definition


Weather Definition


TIME
00:00 Legend Double Dagger 1.8 0.4 91 20 3 32.2 102.50     LegendNANA
01:00 Legend Double Dagger 1.4 0.4 93 36 2 32.2 102.49     Mostly Cloudy
02:00 Legend Double Dagger 1.1 0.4 95 16 7 32.2 102.45     LegendNANA
03:00 Legend Double Dagger 0.4 -0.4 95 14 8 32.2 102.49     LegendNANA
04:00 Legend Double Dagger -0.2 -0.7 97 9 9 24.1 102.47   -3 Mainly Clear
05:00 Legend Double Dagger -0.6 -0.9 98 9 9 24.1 102.45   -4 LegendNANA
06:00 Legend Double Dagger -1.1 -1.4 98 10 10 24.1 102.43   -5 LegendNANA
07:00 Legend Double Dagger 0.3 0.0 98 10 10 12.9 102.39     Cloudy
08:00 Legend Double Dagger 0.4 0.0 97 11 9 6.4 102.35     Fog
09:00 Legend Double Dagger 1.8 1.5 98 3 5 0.6 102.37     Fog
10:00 Legend Double Dagger 2.3 2.2 99 2 5 0.2 102.39     Fog
11:00 Legend Double Dagger 3.3 3.1 99 30 10 4.8 102.33     Fog
12:00 Legend Double Dagger 3.7 3.1 96 31 12 11.3 102.23     LegendNANA
13:00 Legend Double Dagger 3.6 2.7 94 33 6 12.9 102.14     Cloudy
14:00 Legend Double Dagger 3.7 2.8 94 33 6 16.1 102.10     LegendNANA
15:00 Legend Double Dagger 3.8 3.0 95 32 6 16.1 102.07     LegendNANA
16:00 Legend Double Dagger 3.4 2.8 96 35 11 16.1 101.99     Cloudy
17:00 Legend Double Dagger 3.0 2.8 98 33 9 3.2 102.00     Fog
18:00 Legend Double Dagger 2.9 2.8 99 34 8 2.8 101.96     Fog
19:00 Legend Double Dagger 3.0 2.9 99 36 2 2.4 101.95     Fog
20:00 Legend Double Dagger 3.0 2.9 100 36 4 0.4 101.92     Fog
21:00 Legend Double Dagger 2.8 2.8 100 5 7 0.4 101.88     Fog
22:00 Legend Double Dagger 2.3 2.2 100 36 6 0.2 101.85     Fog
23:00 Legend Double Dagger 1.8 1.8 100 26 4 0.4 101.80     Fog

Notes on Data Quality.

Legend

  • E = Estimated
  • M = Missing
  • NA = Not Available
  • ‡ = Partner data that is not subject to review by the National Climate Archives
Date modified: